Change the Weather History Date:

Sunday, May 27, 2012

  Actual Average Record
Temperature  
Mean Temperature 70 °F -  
Max Temperature 78 °F 70 °F 88 °F (1941)
Min Temperature 62 °F 48 °F 36 °F (1930)
Cooling Degree Days 5    
Growing Degree Days 20 (Base 50)    
Moisture  
Dew Point 64 °F    
Average Humidity 91    
Maximum Humidity 100    
Minimum Humidity 69    
Precipitation  
Precipitation 0.01 in - - ()
Sea Level Pressure  
Sea Level Pressure 30.13 in    
Wind  
Wind Speed 2 mph (WSW)    
Max Wind Speed 23 mph    
Max Gust Speed 40 mph    
Visibility 4 miles    
Events Fog , Rain , Thunderstorm    
Averages and records for this station are not official NWS values.
T = Trace of Precipitation, MM = Missing Value Source: NWS Daily Summary

Daily Weather History Graph

Daily Weather History Graph

Search for Another Location

Airport or City:

Trip Planner

Search our weather history database for the weather conditions in past years. The results will help you decide how hot, cold, wet, or windy it might be!

Date:

Astronomy

May. 27, 2012 Rise Set
Actual Time 5:44 AM EDT 8:33 PM EDT
Civil Twilight 5:11 AM EDT 9:05 PM EDT
Nautical Twilight 4:31 AM EDT 9:46 PM EDT
Astronomical Twilight 3:44 AM EDT 10:33 PM EDT
Moon 11:48 AM EDT (5/27) 12:37 AM EDT (5/27)
Length of Visible Light 15h 53m
Length of Day
14h 49m
Waxing Crescent, 38% of the Moon is Illuminated
May 27
Waxing Crescent
May 28
First Quarter
Jun 4
Full
Jun 11
Last Quarter
Jun 19
New

Hourly Weather History & Observations

Time (EDT) Temp. Dew Point Humidity Pressure Visibility Wind Dir Wind Speed Gust Speed Precip Events Conditions
12:15 AM 66.2 °F 64.4 °F 94% 30.17 in 2.5 mi Calm Calm - N/A   Clear
12:35 AM 66.2 °F 64.4 °F 94% 30.17 in 2.5 mi Calm Calm - N/A   Clear
12:55 AM 66.2 °F 64.4 °F 94% 30.17 in 0.2 mi Calm Calm - N/A Fog Fog
1:15 AM 66.2 °F 64.4 °F 94% 30.17 in 0.2 mi Calm Calm - N/A Fog Fog
1:35 AM 64.4 °F 62.6 °F 94% 30.16 in 0.2 mi Calm Calm - N/A Fog Fog
1:55 AM 64.4 °F 64.4 °F 100% 30.16 in 0.2 mi Calm Calm - N/A Fog Fog
2:15 AM 64.4 °F 64.4 °F 100% 30.15 in 0.2 mi Calm Calm - N/A Fog Fog
2:35 AM 64.4 °F 64.4 °F 100% 30.15 in 0.2 mi Calm Calm - N/A Fog Fog
2:55 AM 64.4 °F 62.6 °F 94% 30.15 in 0.2 mi Calm Calm - N/A Fog Fog
3:15 AM 64.4 °F 62.6 °F 94% 30.14 in 0.2 mi Calm Calm - N/A Fog Fog
3:35 AM 64.4 °F 62.6 °F 94% 30.14 in 0.2 mi Calm Calm - N/A Fog Fog
4:15 AM 64.4 °F 62.6 °F 94% 30.14 in 0.2 mi Calm Calm - N/A Fog Fog
4:35 AM 64.4 °F 62.6 °F 94% 30.15 in 0.2 mi Calm Calm - N/A Fog Fog
4:55 AM 64.4 °F 64.4 °F 100% 30.14 in 0.2 mi Calm Calm - N/A Fog Fog
5:15 AM 64.4 °F 64.4 °F 100% 30.14 in 0.2 mi Calm Calm - N/A Fog Fog
5:35 AM 64.4 °F 64.4 °F 100% 30.15 in 0.2 mi Calm Calm - N/A Fog Fog
5:53 AM 66.2 °F 64.4 °F 94% 30.15 in 0.2 mi Calm Calm - N/A Fog Fog
6:53 AM 66.2 °F 64.4 °F 94% 30.16 in 0.2 mi Calm Calm - N/A Fog Fog
7:53 AM 66.2 °F 64.4 °F 94% 30.18 in 1.0 mi NE 4.6 mph - N/A   Overcast
8:25 AM 64.4 °F 64.4 °F 100% 30.19 in 3.0 mi NE 5.8 mph - N/A   Overcast
8:53 AM 64.4 °F 64.4 °F 100% 30.19 in 2.5 mi NNE 4.6 mph - N/A   Overcast
9:53 AM 68.0 °F 66.2 °F 94% 30.18 in 3.0 mi Variable 3.5 mph - N/A   Overcast
10:53 AM 71.6 °F 66.2 °F 83% 30.17 in 5.0 mi Variable 3.5 mph - N/A   Haze
11:53 AM 75.2 °F 68.0 °F 78% 30.17 in 7.0 mi Variable 3.5 mph - N/A   Haze
1:14 PM 78.8 °F 69.8 °F 74% 30.14 in 8.0 mi SW 4.6 mph - N/A   Scattered Clouds
1:53 PM 78.8 °F 68.0 °F 69% 30.13 in 8.0 mi WSW 10.4 mph - N/A   Mostly Cloudy
2:53 PM 78.8 °F 69.8 °F 74% 30.11 in 8.0 mi SW 5.8 mph - N/A   Scattered Clouds
3:53 PM 78.8 °F 68.0 °F 69% 30.09 in 8.0 mi SW 6.9 mph - N/A   Mostly Cloudy
4:53 PM 78.8 °F 68.0 °F 69% 30.07 in 8.0 mi SW 8.1 mph - N/A   Mostly Cloudy
5:53 PM 75.2 °F 66.2 °F 73% 30.12 in 3.0 mi WNW 23.0 mph 40.3 mph N/A Rain Heavy Rain
6:53 PM 66.2 °F 62.6 °F 88% 30.10 in 5.0 mi West 9.2 mph 17.3 mph N/A Rain , Thunderstorm Thunderstorms and Rain
7:53 PM 64.4 °F 60.8 °F 88% 30.12 in 4.0 mi WSW 8.1 mph - N/A Rain , Thunderstorm Thunderstorms and Rain
8:53 PM 62.6 °F 60.8 °F 94% 30.10 in 7.0 mi WSW 6.9 mph - N/A Rain Light Rain
9:15 PM 62.6 °F 60.8 °F 94% 30.10 in 10.0 mi Calm Calm - 0.01 in   Clear
9:35 PM 62.6 °F 60.8 °F 94% 30.11 in 10.0 mi SW 4.6 mph - 0.01 in   Clear
9:55 PM 62.6 °F 60.8 °F 94% 30.11 in 10.0 mi Calm Calm - N/A   Clear
10:15 PM 62.6 °F 60.8 °F 94% 30.11 in 10.0 mi Calm Calm - N/A   Clear
10:35 PM 62.6 °F 60.8 °F 94% 30.09 in 10.0 mi Calm Calm - N/A   Clear
10:55 PM 62.6 °F 60.8 °F 94% 30.08 in 7.0 mi Calm Calm - N/A   Clear
11:15 PM 62.6 °F 60.8 °F 94% 30.06 in 10.0 mi SW 5.8 mph - N/A   Clear
11:35 PM 62.6 °F 60.8 °F 94% 30.05 in 10.0 mi SW 8.1 mph - N/A   Clear
11:55 PM 62.6 °F 60.8 °F 94% 30.05 in 10.0 mi WSW 6.9 mph - N/A   Clear